Location: Augustenthal
(51.7167°N, 10.2833°E)
Time: 15:01:13
(UTC+00:00)

Cosmos 1455 Rocket - Pass Details

Date: 26 September 2021
Orbit: 606 x 628 km, 82.5° (Epoch: 21 October)

Event Time Altitude Azimuth Distance (km) Brightness Sun altitude
Exits shadow 20:53:20 15° 12° (NNE) 1,656 5.6 -32.3°
Drops below altitude 10° 20:54:10 10° 12° (NNE) 1,984 6.0 -32.4°
Sets 20:56:24 0° 12° (NNE) 2,898 7.0 -32.6°
